Regional Weather Roundup
Issued by NWS Portland, ME

Home | Current Version | Previous Version | Text Only | Print | Product List | Glossary On
Versions: 1 2 3 4 5 6 7 8 9 10 11 12 13 14 15 16 17 18 19 20 21 22 23 24 25 26 27 28 29 30 31 32 33 34 35 36 37 38 39 40 41 42 43 44 45 46 47 48 49 50
000
ASUS41 KGYX 240910
RWRGYX
WEATHER ROUNDUP FOR MAINE AND NEW HAMPSHIRE
NATIONAL WEATHER SERVICE GRAY ME
500 AM EDT SUN JUL 24 2016

MEZ002-005-006-010-012-015-018-020-021-024-026-027-029-241000-
MAINE

CITY           SKY/WX    TMP DP  RH WIND       PRES   REMARKS
PORTLAND       PTCLDY    65  60  84 W6        29.87R
SANFORD          N/A     62  60  93 W3        29.90R
BAR HARBOR     CLOUDY    67  63  87 VRB3      29.82R
WISCASSET      CLEAR     66  61  84 VRB3      29.86R
ROCKLAND       PTCLDY    69  62  78 VRB5      29.82S
FRYEBURG       NOT AVBL
LEWISTONAUBURN   N/A     63  60  90 CALM      29.88R
AUGUSTA        CLEAR     65  60  84 NW6       29.86R
WATERVILLE     CLEAR     64  60  87 N3        29.83R
BANGOR         CLOUDY    68  62  81 N5        29.83S
GREENVILLE       N/A     58  51  78 N6        29.87R
MILLINOCKET    PTCLDY    60  56  86 CALM      29.85S
HOULTON        CLOUDY    56  56 100 NW3       29.82R
PRESQUE ISLE   CLEAR     56  54  93 CALM      29.85R
FRENCHVILLE    CLEAR     57  51  80 NW12      29.84R
CARIBOU        PTCLDY    58  53  84 CALM      29.84R
$$

NHZ002-005-008-009-011-012-014-241000-
NEW HAMPSHIRE

CITY           SKY/WX    TMP DP  RH WIND       PRES   REMARKS
PORTSMOUTH     PTCLDY    63  60  90 W5        29.88S
ROCHESTER      CLEAR     63  59  87 VRB5      29.88F
NASHUA         CLEAR     62  59  90 NW5       29.92S
MANCHESTER     PTCLDY    66  58  75 NW3       29.90S
CONCORD        CLEAR     61  57  87 CALM      29.92S
LACONIA        CLEAR     64  61  90 W6        29.92S
PLYMOUTH       FAIR      65  60  84 W9        29.92S
BERLIN         PTCLDY    62  58  86 CALM      29.93F
WHITEFIELD     CLEAR     61  58  90 CALM      29.95S
JAFFREY        CLEAR     58  56  93 CALM      29.96S
KEENE          FOG       60  59  96 CALM      29.97S VSB 1/2
LEBANON        PTCLDY    57  54  89 CALM      29.94S
MT WASHINGTON  MOCLDY    45  45  99 NW38G45     N/A
$$

VTZ005-007-008-241000-
VERMONT

CITY           SKY/WX    TMP DP  RH WIND       PRES   REMARKS
ST JOHNSBURY     N/A     61  59  93 MISG      29.93F
MONTPELIER     FAIR      61  59  93 VRB3      30.00F
BURLINGTON     FAIR      62  55  77 N7        29.99R
$$

MAZ007-012-024-CTZ003-RIZ002-NYZ038-NYZ072-241000-
SOUTHERN NEW ENGLAND AND NY

CITY           SKY/WX    TMP DP  RH WIND       PRES   REMARKS
BOSTON         PTCLDY    69  58  67 NW10G20   29.90R
WORCESTER      CLEAR     66  57  72 NW14      29.94F
NANTUCKET      CLEAR     69  60  73 NW12      29.88S
PROVIDENCE     CLEAR     71  58  63 N8        29.90S
HARTFORD       PTCLDY    63  59  87 W5        29.93S
ALBANY         PTCLDY    61  59  93 CALM      29.96F
NEW YORK CITY  CLEAR     76  63  64 NE6       29.94R
$$

ANZ081-ANZ082-ANZ150-NHZ014-MEZ023>029-241000-
COASTAL MARINE OBSERVATIONS

STATION/POSITION TIME  TEMP    WIND        PRES    WAVE
                       AIR SEA DIR/SP/G            HT/PER
                 (UTC) (F)     (DEG/KT/KT) (MB)    (FT/S)
MOUNT DESERT ROC 0900   63     320/ 10/ 11 1009.5R
MATINICUS ROCK   0900   66     330/ 11/ 12 1009.5R
ISLE OF SHOALS   0900   64     300/ 10/ 11 1011.7R
JEFFREYS LEDGE   0808      68                N/A     2/ 3
CASHES LEDGE BUO 0850   69 69  290/ 16/ 19 1009.9R   3/ 8
GEORGES BANK BUO 0850   63 62              1009.3R   5/ 8
$$

.............KEY..............
   WCI - WIND CHILL
   TC  - TEMPERATURE IN CELSIUS
   VSB - VISIBILITY IN MILES
   HX  - HEAT INDEX
   FAIR- INDICATES FEW OR NO CLOUDS BELOW 12,000 FT, WITH NO
         SIGNIFICANT WEATHER AND/OR OBSTRUCTIONS TO VISIBILITY.





USA.gov is the U.S. government's official web portal to all federal, state and local government web resources and services.